Weather History for Livingston, MT

Change the Weather History Date:

Sunday, October 7, 2012

  Actual Average Record
Temperature  
Mean Temperature 48 °F 48 °F  
Max Temperature 63 °F 62 °F 82 °F (1979)
Min Temperature 35 °F 34 °F 19 °F (1985)
Degree Days  
Heating Degree Days 16 17  
Month to date heating degree days 112  
Since 1 July heating degree days 521  
Cooling Degree Days 0 0  
Month to date cooling degree days 0  
Year to date cooling degree days 229  
Moisture  
Dew Point 23 °F    
Average Humidity 40    
Maximum Humidity 61    
Minimum Humidity 21    
Precipitation  
Precipitation 0.00 in 0.05 in 0.61 in (1985)
Month to date precipitation 0.35  
Year to date precipitation 12.79  
Sea Level Pressure  
Sea Level Pressure 30.06 in    
Wind  
Wind Speed 14 mph (West)    
Max Wind Speed 26 mph    
Max Gust Speed 36 mph    
Visibility 10 miles    
Events      
T = Trace of Precipitation, MM = Missing Value Source: NWS Daily Summary

Daily Weather History Graph

Daily Weather History Graph

Search for Another Location

Airport:

Trip Planner

Search our weather history database for the weather conditions in past years. The results will help you decide how hot, cold, wet, or windy it might be!

Date:

Astronomy

Oct. 07, 2012 Rise Set
Actual Time 7:28 AM MDT 6:49 PM MDT
Civil Twilight 6:58 AM MDT 7:19 PM MDT
Nautical Twilight 6:24 AM MDT 7:53 PM MDT
Astronomical Twilight 5:49 AM MDT 8:28 PM MDT
Moon 11:52 PM MDT (10/7) 2:20 PM MDT (10/7)
Length of Visible Light 12h 20m
Length of Day
11h 21m
Waning Gibbous, 55% of the Moon is Illuminated
Oct 7
Waning Gibbous
Oct 8
Last Quarter
Oct 15
New
Oct 21
First Quarter
Oct 29
Full

Hourly Weather History & Observations

Time (MDT) Temp. Windchill Dew Point Humidity Pressure Visibility Wind Dir Wind Speed Gust Speed Precip Events Conditions
1:53 AM 39.0 °F 33.4 °F 26.1 °F 60% 30.22 in 10.0 mi West 8.1 mph - N/A   Mostly Cloudy
2:53 AM 39.0 °F 33.4 °F 24.1 °F 55% 30.20 in 10.0 mi WNW 8.1 mph - N/A   Overcast
3:53 AM 41.0 °F 32.8 °F 19.9 °F 43% 30.16 in 10.0 mi WSW 16.1 mph - N/A   Clear
4:53 AM 35.1 °F 27.4 °F 23.0 °F 61% 30.19 in 10.0 mi WNW 10.4 mph - N/A   Clear
5:53 AM 36.0 °F 27.5 °F 21.0 °F 55% 30.19 in 10.0 mi West 12.7 mph - N/A   Clear
6:53 AM 37.0 °F 28.5 °F 21.0 °F 52% 30.19 in 10.0 mi West 13.8 mph - N/A   Clear
7:53 AM 37.9 °F 30.9 °F 21.0 °F 51% 30.19 in 10.0 mi WNW 10.4 mph 23.0 mph N/A   Partly Cloudy
8:53 AM 39.0 °F 32.3 °F 23.0 °F 53% 30.19 in 10.0 mi WNW 10.4 mph - N/A   Clear
9:53 AM 48.0 °F - 23.0 °F 37% 30.13 in 10.0 mi SW 24.2 mph 32.2 mph N/A   Clear
10:53 AM 52.0 °F - 24.1 °F 34% 30.09 in 10.0 mi SW 25.3 mph 32.2 mph N/A   Clear
11:53 AM 55.0 °F - 24.1 °F 30% 30.06 in 10.0 mi SW 26.5 mph 35.7 mph N/A   Clear
12:53 PM 57.9 °F - 24.1 °F 27% 30.03 in 10.0 mi WSW 21.9 mph 33.4 mph N/A   Clear
1:53 PM 61.0 °F - 23.0 °F 23% 30.00 in 10.0 mi West 25.3 mph 33.4 mph N/A   Clear
2:53 PM 62.1 °F - 23.0 °F 22% 29.97 in 10.0 mi West 24.2 mph - N/A   Clear
3:53 PM 62.1 °F - 21.0 °F 21% 29.96 in 10.0 mi WSW 20.7 mph 27.6 mph N/A   Clear
4:53 PM 62.1 °F - 21.0 °F 21% 29.96 in 10.0 mi West 16.1 mph 25.3 mph N/A   Clear
5:53 PM 61.0 °F - 21.0 °F 21% 29.95 in 10.0 mi West 15.0 mph 27.6 mph N/A   Clear
6:53 PM 55.9 °F - 21.9 °F 27% 29.94 in 10.0 mi West 13.8 mph - N/A   Clear
7:53 PM 51.1 °F - 21.9 °F 32% 29.95 in 10.0 mi West 9.2 mph - N/A   Clear
8:53 PM 50.0 °F - 23.0 °F 35% 29.96 in 10.0 mi NW 9.2 mph - N/A   Clear
9:53 PM 43.0 °F 40.3 °F 23.0 °F 45% 29.96 in 10.0 mi West 4.6 mph - N/A   Clear
10:53 PM 39.9 °F 34.5 °F 25.0 °F 55% 29.97 in 10.0 mi WNW 8.1 mph - N/A   Clear
11:53 PM 41.0 °F 34.3 °F 24.1 °F 51% 29.97 in 10.0 mi WSW 11.5 mph - N/A   Clear